TimeCET,TemperatureF,Dew PointF,Humidity,Sea Level PressureIn,VisibilityMPH,Wind Direction,Wind SpeedMPH,Gust SpeedMPH,PrecipitationIn,Events,Conditions,WindDirDegrees,DateUTC
12:00 AM,60.8,57.2,88,29.89,6.2,ENE,4.6,-,N/A,,Overcast,70,2012-11-03 23:00:00
12:30 AM,60.8,57.2,88,29.89,6.2,Variable,3.5,-,N/A,,Overcast,0,2012-11-03 23:30:00
1:00 AM,60.8,57.2,88,29.89,6.2,Variable,3.5,-,N/A,,Overcast,0,2012-11-04 00:00:00
1:30 AM,60.8,57.2,88,29.86,6.2,NE,3.5,-,N/A,,Overcast,50,2012-11-04 00:30:00
2:00 AM,60.8,57.2,88,29.86,6.2,NE,4.6,-,N/A,,Overcast,50,2012-11-04 01:00:00
2:30 AM,60.8,57.2,88,29.86,6.2,NE,4.6,-,N/A,,Overcast,40,2012-11-04 01:30:00
3:00 AM,60.8,57.2,88,29.83,6.2,NE,3.5,-,N/A,,Overcast,50,2012-11-04 02:00:00
3:30 AM,60.8,57.2,88,29.83,6.2,Variable,1.2,-,N/A,,Overcast,0,2012-11-04 02:30:00
4:00 AM,60.8,59.0,94,29.80,6.2,NNE,1.2,-,N/A,,Overcast,30,2012-11-04 03:00:00
4:30 AM,60.8,59.0,94,29.80,6.2,Calm,Calm,-,N/A,,Overcast,0,2012-11-04 03:30:00
5:00 AM,60.8,59.0,94,29.80,6.2,NNE,1.2,-,N/A,,Overcast,20,2012-11-04 04:00:00
5:30 AM,60.8,59.0,94,29.80,6.2,Calm,Calm,-,N/A,,Overcast,0,2012-11-04 04:30:00
6:00 AM,60.8,59.0,94,29.80,6.2,South,1.2,-,N/A,,Overcast,170,2012-11-04 05:00:00
6:30 AM,62.6,60.8,94,29.83,6.2,SW,3.5,-,N/A,,Overcast,230,2012-11-04 05:30:00
7:00 AM,64.4,60.8,88,29.83,6.2,WSW,4.6,-,N/A,,Overcast,250,2012-11-04 06:00:00
7:30 AM,66.2,62.6,88,29.83,6.2,West,4.6,-,N/A,,Overcast,260,2012-11-04 06:30:00
8:00 AM,66.2,62.6,88,29.83,6.2,WSW,6.9,-,N/A,,Overcast,250,2012-11-04 07:00:00
8:30 AM,66.2,62.6,88,29.83,6.2,WSW,5.8,-,N/A,,Overcast,250,2012-11-04 07:30:00
9:00 AM,68.0,64.4,88,29.83,6.2,WSW,5.8,-,N/A,,Overcast,250,2012-11-04 08:00:00
9:30 AM,68.0,64.4,88,29.83,6.2,West,8.1,-,N/A,,Overcast,260,2012-11-04 08:30:00
10:00 AM,68.0,64.4,88,29.83,6.2,West,8.1,-,N/A,,Overcast,260,2012-11-04 09:00:00
10:30 AM,68.0,64.4,88,29.83,6.2,West,6.9,-,N/A,,Overcast,260,2012-11-04 09:30:00
11:00 AM,68.0,64.4,88,29.83,6.2,West,9.2,-,N/A,,Overcast,260,2012-11-04 10:00:00
11:30 AM,69.8,64.4,83,29.83,6.2,West,8.1,-,N/A,,Overcast,260,2012-11-04 10:30:00
12:00 PM,69.8,64.4,83,29.83,6.2,WSW,10.4,-,N/A,,Overcast,250,2012-11-04 11:00:00
12:30 PM,73.4,66.2,78,29.80,6.2,West,11.5,-,N/A,,Overcast,260,2012-11-04 11:30:00
1:00 PM,71.6,64.4,78,29.80,6.2,West,11.5,-,N/A,,Mostly Cloudy,260,2012-11-04 12:00:00
1:30 PM,71.6,64.4,78,29.80,6.2,West,11.5,-,N/A,,Overcast,260,2012-11-04 12:30:00
2:00 PM,71.6,64.4,78,29.77,6.2,West,11.5,-,N/A,,Overcast,260,2012-11-04 13:00:00
2:30 PM,71.6,64.4,78,29.77,6.2,West,12.7,-,N/A,,Mostly Cloudy,270,2012-11-04 13:30:00
3:00 PM,69.8,64.4,83,29.77,6.2,West,11.5,-,N/A,,Mostly Cloudy,260,2012-11-04 14:00:00
3:30 PM,69.8,64.4,83,29.77,6.2,West,11.5,-,N/A,Rain,Light Rain,270,2012-11-04 14:30:00
4:00 PM,68.0,66.2,94,29.77,4.3,West,10.4,-,N/A,Rain,Light Rain,270,2012-11-04 15:00:00
4:30 PM,68.0,66.2,94,29.77,6.2,West,10.4,-,N/A,Rain,Light Rain,270,2012-11-04 15:30:00
5:00 PM,68.0,66.2,94,29.77,6.2,West,11.5,-,N/A,Rain,Light Rain,260,2012-11-04 16:00:00
5:30 PM,68.0,66.2,94,29.77,6.2,West,9.2,-,N/A,Rain,Light Rain,270,2012-11-04 16:30:00
6:00 PM,68.0,66.2,94,29.77,6.2,West,9.2,-,N/A,,Overcast,280,2012-11-04 17:00:00
6:30 PM,68.0,64.4,88,29.77,6.2,WSW,6.9,-,N/A,,Overcast,250,2012-11-04 17:30:00
7:00 PM,68.0,64.4,88,29.74,3.7,West,5.8,-,N/A,Rain,Light Rain,260,2012-11-04 18:00:00
7:30 PM,68.0,64.4,88,29.74,6.2,West,6.9,-,N/A,,Overcast,260,2012-11-04 18:30:00
8:00 PM,68.0,64.4,88,29.74,6.2,WSW,5.8,-,N/A,,Overcast,250,2012-11-04 19:00:00
8:30 PM,68.0,64.4,88,29.71,6.2,West,4.6,-,N/A,,Overcast,260,2012-11-04 19:30:00
9:00 PM,68.0,62.6,83,29.71,6.2,WSW,10.4,-,N/A,,Overcast,240,2012-11-04 20:00:00
9:30 PM,68.0,62.6,83,29.71,6.2,West,9.2,-,N/A,,Overcast,260,2012-11-04 20:30:00
10:00 PM,68.0,62.6,83,29.68,6.2,West,10.4,-,N/A,,Overcast,260,2012-11-04 21:00:00
10:30 PM,68.0,62.6,83,29.68,6.2,West,12.7,-,N/A,,Overcast,260,2012-11-04 21:30:00
11:00 PM,68.0,62.6,83,29.68,6.2,West,11.5,-,N/A,,Mostly Cloudy,260,2012-11-04 22:00:00
11:30 PM,68.0,62.6,83,29.65,6.2,West,11.5,-,N/A,,Mostly Cloudy,260,2012-11-04 22:30:00